Location: Altenst�hlen
(53.5567°N, 8.9425°E)
Time: 17:30:19
(UTC+00:00)

USA 238 DEB - Pass Details

Date: 23 October 2019
Orbit: 1026 x 1186 km, 63.4° (Epoch: 19 November)

Event Time Altitude Azimuth Distance (km) Brightness Sun altitude
Rises 17:30:35 0° 205° (SSW) 3,777 7.0 -12.5°
Reaches altitude 10° 17:33:12 10° 201° (SSW) 2,840 6.2 -12.9°
Maximum altitude 17:39:41 55° 126° (SE) 1,262 3.8 -13.8°
Enters shadow 17:46:09 11° 52° (NE) 2,848 5.5 -14.8°
